Regional Weather Roundup
Issued by NWS Green Bay, WI

Home | Current Version | Previous Version | Graphics & Text | Print | Product List | Glossary Off
Versions: 1 2 3 4 5 6 7 8 9 10 11 12 13 14 15 16 17 18 19 20 21 22 23 24 25 26 27 28 29 30 31 32 33 34 35 36 37 38 39 40 41 42 43 44 45 46 47 48 49 50

000
ASUS43 KGRB 021211
RWRGRB

NORTH-CENTRAL AND NORTHEAST WISCONSIN REGIONAL WEATHER ROUNDUP
NATIONAL WEATHER SERVICE GREEN BAY WI
700 AM CDT SUN AUG 02 2015

WIZ005-009-010>012-018-019-021300-
NORTH CENTRAL WISCONSIN

CITY           SKY/WX    TMP DP  RH WIND       PRES   REMARKS
IRONWOOD       MOSUNNY   64  57  77 SE6       29.64F
MANITOWISH WTR CLOUDY    64  64 100 CALM      29.70R
ARBOR VITAE    LGT RAIN  65  63  93 SW3       29.70R
EAGLE RIVER    MOSUNNY   66  64  95 W6        29.69S
LAND O LAKES   CLOUDY    66  62  88 N6        29.71R
RHINELANDER    CLOUDY    68  64  87 SW12      29.71R
PHILLIPS       TSTM      65  63  94 SW26G37   29.74R
ANTIGO         MOSUNNY   66  65  98 SW7       29.72R
TOMAHAWK       PTSUNNY   63  62  97 CALM      29.72R
MERRILL        NOT AVBL
$$

WIZ013-073-021300-
NORTHEAST WISCONSIN

CITY           SKY/WX    TMP DP  RH WIND       PRES   REMARKS
IRON MOUNTAIN  MOSUNNY   67  61  81 VRB3      29.66R
MARINETTE      MOSUNNY   66  61  82 SW8       29.65S
OCONTO         PTSUNNY   68  68 100 SW7       29.66F
$$

WIZ017-030-035>037-045-021300-
CENTRAL WISCONSIN

CITY           SKY/WX    TMP DP  RH WIND       PRES   REMARKS
MEDFORD        MOSUNNY   66  65  96 SW3       29.73R
WAUSAU         CLOUDY    69  66  90 CALM      29.70R
MOSINEE        MOSUNNY   66  66 100 SW3       29.72S
MARSHFIELD     SUNNY     70  65  84 SW8       29.71R
WISC RAPIDS    SUNNY     73  67  81 SW10      29.71F
STEVENS POINT  SUNNY     68  66  94 SW7       29.71S
WAUPACA        MOSUNNY   69  67  93 S6        29.71F
SHAWANO        MOSUNNY   68  64  88 CALM      29.70R
CLINTONVILLE   MOSUNNY   66  64  94 S7        29.69F
$$

WIZ038-039-048-051-021300-
FOX VALLEY

CITY           SKY/WX    TMP DP  RH WIND       PRES   REMARKS
NWS GREEN BAY  CLOUDY    71  67  87 SW6       29.70F
APPLETON       PTSUNNY   70  66  88 S9        29.73F
OSHKOSH        CLOUDY    69  65  86 S12       29.72F
FOND DU LAC    PTSUNNY   73  68  84 S10       29.74F
$$

WIZ022-050-052-021300-
EAST CENTRAL WISCONSIN

CITY           SKY/WX    TMP DP  RH WIND       PRES   REMARKS
STURGEON BAY   PTSUNNY   72  64  78 SW10      29.69F
MANITOWOC      PTSUNNY   73  67  81 MISG      29.72F
SHEBOYGAN      MOSUNNY   69  66  90 SW7       29.75F
$$

LMZ563-521-522-541>543-021300-
LAKESHORE

STATION/POSITION TIME  TEMP    WIND        PRES    VSBY  WAVE
                       AIR SEA DIR/SP/G                  HT/PER
                 (UTC) (F)     (DEG/KT/KT) (MB)    (MI)  (FT/S)
SHEBOYGAN LKSHOR 1200   68     190/  8/  9 1007.3F
KEWAUNEE LKSHORE 1100   71     240/  7/ 12 1006.4F
NORTHPORT PIER   1200   69     180/  4/  9 1003.7F
N MID LAKE BUOY  1150   69 68  190/ 14/ 17 1003.5F         2/ 4
S GREEN BAY BUOY 1200   68 65  230/ 10/ 16 1006.1F
STURGEON BAY CG  1151          190/  3     1006.0   3 1/2  2
CHAMBERS ISLAND  1100   68     190/  4/  6 1005.1F
MENOMINEE LKSHOR 1100   65     160/  3/  4 1006.0S
$$


USA.gov is the U.S. government's official web portal to all federal, state and local government web resources and services.